Time,TemperatureF,DewpointF,PressureIn,WindDirection,WindDirectionDegrees,WindSpeedMPH,WindSpeedGustMPH,Humidity,HourlyPrecipIn,Conditions,Clouds,dailyrainin,SoftwareType,DateUTC
2013-05-01 00:08:00,71.2,9.4,29.67,SSW,200,5.0,5.0,9,0.00,,,0.00,Wunderground v.1.15,2013-05-01 06:08:00,
2013-05-01 00:13:00,71.1,9.3,29.67,West,259,5.0,5.0,9,0.00,,,0.00,Wunderground v.1.15,2013-05-01 06:13:00,
2013-05-01 00:18:00,70.9,9.2,29.67,SW,221,4.0,4.0,9,0.00,,,0.00,Wunderground v.1.15,2013-05-01 06:18:00,
2013-05-01 00:28:00,70.8,11.5,29.67,WSW,252,5.0,9.0,10,0.00,,,0.00,Wunderground v.1.15,2013-05-01 06:28:00,
2013-05-01 00:38:00,71.0,11.6,29.68,WSW,257,7.0,7.0,10,0.00,,,0.00,Wunderground v.1.15,2013-05-01 06:38:00,
2013-05-01 00:48:00,70.6,11.3,29.69,SW,230,4.0,8.0,10,0.00,,,0.00,Wunderground v.1.15,2013-05-01 06:48:00,
2013-05-01 00:53:00,70.4,11.2,29.69,NW,315,4.0,8.0,10,0.00,,,0.00,Wunderground v.1.15,2013-05-01 06:53:00,
2013-05-01 00:58:00,70.1,10.9,29.69,SW,215,4.0,4.0,10,0.00,,,0.00,Wunderground v.1.15,2013-05-01 06:58:00,
2013-05-01 01:08:00,70.0,10.9,29.69,West,273,5.0,5.0,10,0.00,,,0.00,Wunderground v.1.15,2013-05-01 07:08:00,
2013-05-01 01:13:00,69.6,12.7,29.69,WSW,245,3.0,9.0,11,0.00,,,0.00,Wunderground v.1.15,2013-05-01 07:13:00,
2013-05-01 01:23:00,69.8,10.7,29.69,WSW,242,5.0,5.0,10,0.00,,,0.00,Wunderground v.1.15,2013-05-01 07:23:00,
2013-05-01 01:28:00,69.7,12.8,29.69,SW,217,5.0,5.0,11,0.00,,,0.00,Wunderground v.1.15,2013-05-01 07:28:00,
2013-05-01 01:33:00,69.2,12.4,29.69,WSW,253,3.0,5.0,11,0.00,,,0.00,Wunderground v.1.15,2013-05-01 07:33:00,
2013-05-01 01:43:00,68.5,11.8,29.69,South,190,2.0,4.0,11,0.00,,,0.00,Wunderground v.1.15,2013-05-01 07:43:00,
2013-05-01 01:53:00,67.8,13.3,29.69,SSE,154,1.0,2.0,12,0.00,,,0.00,Wunderground v.1.15,2013-05-01 07:53:00,
2013-05-01 01:58:00,67.3,12.9,29.69,SE,136,1.0,3.0,12,0.00,,,0.00,Wunderground v.1.15,2013-05-01 07:58:00,
2013-05-01 02:08:00,66.6,12.3,29.70,SE,135,2.0,3.0,12,0.00,,,0.00,Wunderground v.1.15,2013-05-01 08:08:00,
2013-05-01 02:13:00,66.1,13.8,29.70,SE,136,2.0,3.0,13,0.00,,,0.00,Wunderground v.1.15,2013-05-01 08:13:00,
2013-05-01 02:18:00,65.5,13.3,29.70,ESE,122,2.0,2.0,13,0.00,,,0.00,Wunderground v.1.15,2013-05-01 08:18:00,
2013-05-01 02:28:00,64.4,12.4,29.71,ESE,108,2.0,3.0,13,0.00,,,0.00,Wunderground v.1.15,2013-05-01 08:28:00,
2013-05-01 02:33:00,64.1,13.9,29.70,SE,132,3.0,3.0,14,0.00,,,0.00,Wunderground v.1.15,2013-05-01 08:33:00,
2013-05-01 02:43:00,63.3,13.2,29.71,East,79,1.0,3.0,14,0.00,,,0.00,Wunderground v.1.15,2013-05-01 08:43:00,
2013-05-01 02:48:00,63.2,13.1,29.71,SE,124,1.0,2.0,14,0.00,,,0.00,Wunderground v.1.15,2013-05-01 08:48:00,
2013-05-01 02:53:00,62.9,12.9,29.71,ESE,114,1.0,2.0,14,0.00,,,0.00,Wunderground v.1.15,2013-05-01 08:53:00,
2013-05-01 02:58:00,62.5,14.2,29.71,East,94,1.0,1.0,15,0.00,,,0.00,Wunderground v.1.15,2013-05-01 08:58:00,
2013-05-01 03:08:00,62.1,13.8,29.71,ESE,105,2.0,2.0,15,0.00,,,0.00,Wunderground v.1.15,2013-05-01 09:08:00,
2013-05-01 03:18:00,61.4,14.7,29.72,ESE,117,0.0,3.0,16,0.00,,,0.00,Wunderground v.1.15,2013-05-01 09:18:00,
2013-05-01 03:23:00,61.2,14.6,29.72,ESE,121,1.0,3.0,16,0.00,,,0.00,Wunderground v.1.15,2013-05-01 09:23:00,
2013-05-01 03:33:00,61.2,14.6,29.72,ESE,105,2.0,2.0,16,0.00,,,0.00,Wunderground v.1.15,2013-05-01 09:33:00,
2013-05-01 03:43:00,60.6,14.1,29.72,East,98,0.0,2.0,16,0.00,,,0.00,Wunderground v.1.15,2013-05-01 09:43:00,
2013-05-01 03:53:00,60.3,13.9,29.72,ESE,116,1.0,2.0,16,0.00,,,0.00,Wunderground v.1.15,2013-05-01 09:53:00,
2013-05-01 03:58:00,60.2,13.8,29.72,ESE,113,2.0,2.0,16,0.00,,,0.00,Wunderground v.1.15,2013-05-01 09:58:00,
2013-05-01 04:08:00,59.9,14.9,29.73,ESE,108,1.0,3.0,17,0.00,,,0.00,Wunderground v.1.15,2013-05-01 10:08:00,
2013-05-01 04:18:00,59.8,14.8,29.73,ESE,120,2.0,2.0,17,0.00,,,0.00,Wunderground v.1.15,2013-05-01 10:18:00,
2013-05-01 04:23:00,59.7,14.8,29.73,SE,127,2.0,2.0,17,0.00,,,0.00,Wunderground v.1.15,2013-05-01 10:23:00,
2013-05-01 04:33:00,59.8,14.8,29.73,SE,145,2.0,2.0,17,0.00,,,0.00,Wunderground v.1.15,2013-05-01 10:33:00,
2013-05-01 04:43:00,59.7,14.8,29.73,SSE,153,2.0,2.0,17,0.00,,,0.00,Wunderground v.1.15,2013-05-01 10:43:00,
2013-05-01 04:48:00,59.6,14.7,29.73,SE,143,2.0,2.0,17,0.00,,,0.00,Wunderground v.1.15,2013-05-01 10:48:00,
2013-05-01 04:58:00,59.5,14.6,29.74,SE,141,2.0,2.0,17,0.00,,,0.00,Wunderground v.1.15,2013-05-01 10:58:00,
2013-05-01 05:08:00,59.5,14.6,29.74,SE,136,2.0,4.0,17,0.00,,,0.00,Wunderground v.1.15,2013-05-01 11:08:00,
2013-05-01 05:13:00,59.6,14.7,29.75,SSE,148,3.0,4.0,17,0.00,,,0.00,Wunderground v.1.15,2013-05-01 11:13:00,
2013-05-01 05:23:00,59.8,14.8,29.75,SSE,156,2.0,3.0,17,0.00,,,0.00,Wunderground v.1.15,2013-05-01 11:23:00,
2013-05-01 05:28:00,59.9,14.9,29.75,SSE,159,2.0,5.0,17,0.00,,,0.00,Wunderground v.1.15,2013-05-01 11:28:00,
2013-05-01 05:33:00,60.5,14.0,29.75,South,173,2.0,5.0,16,0.00,,,0.00,Wunderground v.1.15,2013-05-01 11:33:00,
2013-05-01 05:43:00,61.1,14.5,29.75,ESE,104,2.0,3.0,16,0.00,,,0.00,Wunderground v.1.15,2013-05-01 11:43:00,
2013-05-01 05:53:00,59.1,15.6,29.76,SE,134,2.0,2.0,18,0.00,,,0.00,Wunderground v.1.15,2013-05-01 11:53:00,
2013-05-01 05:58:00,58.4,15.0,29.76,ESE,109,2.0,2.0,18,0.00,,,0.00,Wunderground v.1.15,2013-05-01 11:58:00,
2013-05-01 06:08:00,58.4,15.0,29.77,SE,131,3.0,4.0,18,0.00,,,0.00,Wunderground v.1.15,2013-05-01 12:08:00,
2013-05-01 06:18:00,58.3,14.9,29.77,SE,124,3.0,3.0,18,0.00,,,0.00,Wunderground v.1.15,2013-05-01 12:18:00,
2013-05-01 06:28:00,57.8,15.7,29.77,ESE,118,1.0,2.0,19,0.00,,,0.00,Wunderground v.1.15,2013-05-01 12:28:00,
2013-05-01 06:38:00,57.5,15.5,29.78,ESE,121,2.0,3.0,19,0.00,,,0.00,Wunderground v.1.15,2013-05-01 12:38:00,
2013-05-01 06:43:00,57.5,15.5,29.78,ESE,116,2.0,3.0,19,0.00,,,0.00,Wunderground v.1.15,2013-05-01 12:43:00,
2013-05-01 06:48:00,57.5,15.5,29.78,ESE,103,2.0,3.0,19,0.00,,,0.00,Wunderground v.1.15,2013-05-01 12:48:00,
2013-05-01 06:58:00,57.9,15.8,29.78,SE,129,3.0,3.0,19,0.00,,,0.00,Wunderground v.1.15,2013-05-01 12:58:00,
2013-05-01 07:08:00,58.3,16.2,29.79,SE,125,2.0,2.0,19,0.00,,,0.00,Wunderground v.1.15,2013-05-01 13:08:00,
2013-05-01 07:13:00,58.5,16.3,29.79,SE,141,2.0,5.0,19,0.00,,,0.00,Wunderground v.1.15,2013-05-01 13:13:00,
2013-05-01 07:18:00,58.7,15.2,29.80,SE,138,3.0,3.0,18,0.00,,,0.00,Wunderground v.1.15,2013-05-01 13:18:00,
2013-05-01 07:23:00,58.8,16.6,29.80,SSE,147,4.0,4.0,19,0.00,,,0.00,Wunderground v.1.15,2013-05-01 13:23:00,
2013-05-01 07:33:00,58.9,15.4,29.80,SE,129,3.0,4.0,18,0.00,,,0.00,Wunderground v.1.15,2013-05-01 13:33:00,
2013-05-01 07:43:00,59.0,16.7,29.80,SE,141,3.0,4.0,19,0.00,,,0.00,Wunderground v.1.15,2013-05-01 13:43:00,
2013-05-01 07:53:00,59.3,17.0,29.81,SE,129,3.0,3.0,19,0.00,,,0.00,Wunderground v.1.15,2013-05-01 13:53:00,
2013-05-01 07:58:00,59.7,16.1,29.81,SE,134,3.0,4.0,18,0.00,,,0.00,Wunderground v.1.15,2013-05-01 13:58:00,
2013-05-01 08:08:00,60.6,18.1,29.81,South,173,3.0,3.0,19,0.00,,,0.00,Wunderground v.1.15,2013-05-01 14:08:00,
2013-05-01 08:18:00,61.4,17.5,29.81,SE,134,3.0,4.0,18,0.00,,,0.00,Wunderground v.1.15,2013-05-01 14:18:00,
2013-05-01 08:28:00,61.7,17.7,29.81,SSE,149,3.0,3.0,18,0.00,,,0.00,Wunderground v.1.15,2013-05-01 14:28:00,
2013-05-01 08:38:00,63.0,17.4,29.81,ESE,105,4.0,4.0,17,0.00,,,0.00,Wunderground v.1.15,2013-05-01 14:38:00,
2013-05-01 08:48:00,64.0,16.8,29.81,SSE,158,3.0,4.0,16,0.00,,,0.00,Wunderground v.1.15,2013-05-01 14:48:00,
2013-05-01 08:53:00,64.4,17.2,29.81,SE,136,3.0,6.0,16,0.00,,,0.00,Wunderground v.1.15,2013-05-01 14:53:00,
2013-05-01 08:58:00,64.5,14.2,29.81,ESE,120,4.0,4.0,14,0.00,,,0.00,Wunderground v.1.15,2013-05-01 14:58:00,
2013-05-01 09:08:00,65.1,14.7,29.82,SSE,152,1.0,2.0,14,0.00,,,0.00,Wunderground v.1.15,2013-05-01 15:08:00,
2013-05-01 09:13:00,65.4,14.9,29.82,ESE,116,2.0,2.0,14,0.00,,,0.00,Wunderground v.1.15,2013-05-01 15:13:00,
2013-05-01 09:23:00,66.2,15.5,29.82,South,191,2.0,3.0,14,0.00,,,0.00,Wunderground v.1.15,2013-05-01 15:23:00,
2013-05-01 09:28:00,67.0,12.6,29.82,SE,139,2.0,2.0,12,0.00,,,0.00,Wunderground v.1.15,2013-05-01 15:28:00,
2013-05-01 09:38:00,68.0,13.4,29.82,WNW,300,2.0,2.0,12,0.00,,,0.00,Wunderground v.1.15,2013-05-01 15:38:00,
2013-05-01 09:48:00,68.8,12.1,29.82,SE,138,2.0,2.0,11,0.00,,,0.00,Wunderground v.1.15,2013-05-01 15:48:00,
2013-05-01 09:58:00,69.9,14.9,29.82,NNW,347,1.0,1.0,12,0.00,,,0.00,Wunderground v.1.15,2013-05-01 15:58:00,
2013-05-01 10:08:00,70.6,13.5,29.82,NNE,29,1.0,1.0,11,0.00,,,0.00,Wunderground v.1.15,2013-05-01 16:08:00,
2013-05-01 10:13:00,70.6,13.5,29.82,SE,135,2.0,5.0,11,0.00,,,0.00,Wunderground v.1.15,2013-05-01 16:13:00,
2013-05-01 10:23:00,71.7,14.3,29.82,East,86,1.0,2.0,11,0.00,,,0.00,Wunderground v.1.15,2013-05-01 16:23:00,
2013-05-01 10:33:00,72.4,12.7,29.82,SW,226,1.0,6.0,10,0.00,,,0.00,Wunderground v.1.15,2013-05-01 16:33:00,
2013-05-01 10:43:00,72.8,10.6,29.82,SW,231,3.0,4.0,9,0.00,,,0.00,Wunderground v.1.15,2013-05-01 16:43:00,
2013-05-01 10:48:00,72.9,13.1,29.81,NNE,28,2.0,2.0,10,0.00,,,0.00,Wunderground v.1.15,2013-05-01 16:48:00,
2013-05-01 10:53:00,73.0,10.8,29.82,NW,326,1.0,2.0,9,0.00,,,0.00,Wunderground v.1.15,2013-05-01 16:53:00,
2013-05-01 10:58:00,72.9,13.1,29.81,North,356,1.0,3.0,10,0.00,,,0.00,Wunderground v.1.15,2013-05-01 16:58:00,
2013-05-01 11:08:00,73.3,11.0,29.81,WNW,285,3.0,4.0,9,0.00,,,0.00,Wunderground v.1.15,2013-05-01 17:08:00,
2013-05-01 11:13:00,73.6,11.2,29.81,NNE,22,3.0,4.0,9,0.00,,,0.00,Wunderground v.1.15,2013-05-01 17:13:00,
2013-05-01 11:23:00,75.0,14.7,29.81,East,93,1.0,2.0,10,0.00,,,0.00,Wunderground v.1.15,2013-05-01 17:23:00,
2013-05-01 11:28:00,75.1,12.4,29.81,South,188,1.0,2.0,9,0.00,,,0.00,Wunderground v.1.15,2013-05-01 17:28:00,
2013-05-01 11:33:00,75.7,12.8,29.81,SW,224,2.0,2.0,9,0.00,,,0.00,Wunderground v.1.15,2013-05-01 17:33:00,
2013-05-01 11:43:00,75.3,9.9,29.80,NNE,12,4.0,5.0,8,0.00,,,0.00,Wunderground v.1.15,2013-05-01 17:43:00,
2013-05-01 11:53:00,76.1,10.4,29.80,SSW,205,3.0,4.0,8,0.00,,,0.00,Wunderground v.1.15,2013-05-01 17:53:00,
2013-05-01 11:58:00,76.7,10.9,29.79,SW,214,4.0,5.0,8,0.00,,,0.00,Wunderground v.1.15,2013-05-01 17:58:00,
2013-05-01 12:08:00,77.3,11.3,29.79,West,277,4.0,4.0,8,0.00,,,0.00,Wunderground v.1.15,2013-05-01 18:08:00,
2013-05-01 12:18:00,77.8,11.7,29.79,WNW,293,3.0,4.0,8,0.00,,,0.00,Wunderground v.1.15,2013-05-01 18:18:00,
2013-05-01 12:28:00,78.5,9.2,29.78,WSW,250,4.0,10.0,7,0.00,,,0.00,Wunderground v.1.15,2013-05-01 18:28:00,
2013-05-01 12:33:00,78.4,12.2,29.79,WSW,249,4.0,10.0,8,0.00,,,0.00,Wunderground v.1.15,2013-05-01 18:33:00,
2013-05-01 12:38:00,78.4,9.2,29.78,SW,217,4.0,4.0,7,0.00,,,0.00,Wunderground v.1.15,2013-05-01 18:38:00,
2013-05-01 12:48:00,77.8,8.7,29.78,NW,318,5.0,5.0,7,0.00,,,0.00,Wunderground v.1.15,2013-05-01 18:48:00,
2013-05-01 12:53:00,77.6,8.6,29.78,SSE,162,4.0,5.0,7,0.00,,,0.00,Wunderground v.1.15,2013-05-01 18:53:00,
2013-05-01 12:58:00,77.7,11.6,29.78,SW,219,3.0,3.0,8,0.00,,,0.00,Wunderground v.1.15,2013-05-01 18:58:00,
2013-05-01 13:08:00,79.0,9.6,29.77,SW,221,3.0,4.0,7,0.00,,,0.00,Wunderground v.1.15,2013-05-01 19:08:00,
2013-05-01 13:18:00,79.9,10.3,29.77,SW,235,4.0,7.0,7,0.00,,,0.00,Wunderground v.1.15,2013-05-01 19:18:00,
2013-05-01 13:28:00,79.0,12.6,29.77,NW,309,6.0,6.0,8,0.00,,,0.00,Wunderground v.1.15,2013-05-01 19:28:00,
2013-05-01 13:33:00,79.6,10.0,29.77,SW,215,4.0,6.0,7,0.00,,,0.00,Wunderground v.1.15,2013-05-01 19:33:00,
2013-05-01 13:43:00,80.2,10.5,29.77,SW,214,4.0,4.0,7,0.00,,,0.00,Wunderground v.1.15,2013-05-01 19:43:00,
2013-05-01 13:48:00,80.7,10.9,29.77,West,278,3.0,6.0,7,0.00,,,0.00,Wunderground v.1.15,2013-05-01 19:48:00,
2013-05-01 13:58:00,80.3,10.6,29.77,WSW,238,6.0,6.0,7,0.00,,,0.00,Wunderground v.1.15,2013-05-01 19:58:00,
2013-05-01 14:08:00,80.3,10.6,29.77,SW,231,6.0,6.0,7,0.00,,,0.00,Wunderground v.1.15,2013-05-01 20:08:00,
2013-05-01 14:13:00,80.5,10.7,29.77,SW,224,6.0,6.0,7,0.00,,,0.00,Wunderground v.1.15,2013-05-01 20:13:00,
2013-05-01 14:23:00,80.9,11.0,29.77,SW,228,5.0,9.0,7,0.00,,,0.00,Wunderground v.1.15,2013-05-01 20:23:00,
2013-05-01 14:28:00,80.8,10.9,29.77,SSW,207,6.0,6.0,7,0.00,,,0.00,Wunderground v.1.15,2013-05-01 20:28:00,
2013-05-01 14:38:00,80.5,10.7,29.76,West,263,6.0,6.0,7,0.00,,,0.00,Wunderground v.1.15,2013-05-01 20:38:00,
2013-05-01 14:43:00,80.6,10.8,29.76,WSW,239,6.0,7.0,7,0.00,,,0.00,Wunderground v.1.15,2013-05-01 20:43:00,
2013-05-01 14:53:00,80.6,10.8,29.76,West,259,6.0,8.0,7,0.00,,,0.00,Wunderground v.1.15,2013-05-01 20:53:00,
2013-05-01 14:58:00,80.2,10.5,29.76,South,186,7.0,7.0,7,0.00,,,0.00,Wunderground v.1.15,2013-05-01 20:58:00,
2013-05-01 15:08:00,80.7,7.4,29.75,WSW,243,7.0,7.0,6,0.00,,,0.00,Wunderground v.1.15,2013-05-01 21:08:00,
2013-05-01 15:18:00,80.9,7.6,29.75,WSW,249,5.0,6.0,6,0.00,,,0.00,Wunderground v.1.15,2013-05-01 21:18:00,
2013-05-01 15:23:00,81.7,8.1,29.75,WNW,291,5.0,6.0,6,0.00,,,0.00,Wunderground v.1.15,2013-05-01 21:23:00,
2013-05-01 15:33:00,81.6,8.1,29.74,SW,233,5.0,6.0,6,0.00,,,0.00,Wunderground v.1.15,2013-05-01 21:33:00,
2013-05-01 15:43:00,81.8,8.2,29.74,West,281,6.0,11.0,6,0.00,,,0.00,Wunderground v.1.15,2013-05-01 21:43:00,
2013-05-01 15:48:00,81.4,7.9,29.74,WSW,257,7.0,7.0,6,0.00,,,0.00,Wunderground v.1.15,2013-05-01 21:48:00,
2013-05-01 15:53:00,81.4,7.9,29.74,West,274,7.0,7.0,6,0.00,,,0.00,Wunderground v.1.15,2013-05-01 21:53:00,
2013-05-01 15:58:00,81.6,8.1,29.73,NW,319,5.0,5.0,6,0.00,,,0.00,Wunderground v.1.15,2013-05-01 21:58:00,
2013-05-01 16:08:00,82.3,8.6,29.74,WNW,300,5.0,5.0,6,0.00,,,0.00,Wunderground v.1.15,2013-05-01 22:08:00,
2013-05-01 16:18:00,81.5,8.0,29.73,WSW,245,6.0,6.0,6,0.00,,,0.00,Wunderground v.1.15,2013-05-01 22:18:00,
2013-05-01 16:23:00,81.8,8.2,29.73,SSW,210,5.0,6.0,6,0.00,,,0.00,Wunderground v.1.15,2013-05-01 22:23:00,
2013-05-01 16:28:00,82.2,4.5,29.73,WNW,283,4.0,12.0,5,0.00,,,0.00,Wunderground v.1.15,2013-05-01 22:28:00,
2013-05-01 16:38:00,81.6,4.1,29.73,WSW,240,6.0,6.0,5,0.00,,,0.00,Wunderground v.1.15,2013-05-01 22:38:00,
2013-05-01 16:43:00,82.0,8.3,29.73,SSE,149,5.0,6.0,6,0.00,,,0.00,Wunderground v.1.15,2013-05-01 22:43:00,
2013-05-01 16:53:00,81.7,4.1,29.73,West,264,5.0,5.0,5,0.00,,,0.00,Wunderground v.1.15,2013-05-01 22:53:00,
2013-05-01 16:58:00,82.3,4.5,29.73,WSW,256,4.0,4.0,5,0.00,,,0.00,Wunderground v.1.15,2013-05-01 22:58:00,
2013-05-01 17:08:00,82.5,4.7,29.73,SW,233,6.0,8.0,5,0.00,,,0.00,Wunderground v.1.15,2013-05-01 23:08:00,
2013-05-01 17:13:00,82.2,4.5,29.73,SSW,195,6.0,8.0,5,0.00,,,0.00,Wunderground v.1.15,2013-05-01 23:13:00,
2013-05-01 17:18:00,82.0,4.3,29.73,WSW,239,6.0,8.0,5,0.00,,,0.00,Wunderground v.1.15,2013-05-01 23:18:00,
2013-05-01 17:28:00,82.3,4.5,29.74,SW,228,5.0,8.0,5,0.00,,,0.00,Wunderground v.1.15,2013-05-01 23:28:00,
2013-05-01 17:38:00,82.0,4.3,29.74,WSW,244,5.0,8.0,5,0.00,,,0.00,Wunderground v.1.15,2013-05-01 23:38:00,
2013-05-01 17:43:00,82.5,4.7,29.74,SSE,167,4.0,8.0,5,0.00,,,0.00,Wunderground v.1.15,2013-05-01 23:43:00,
2013-05-01 17:53:00,82.0,8.3,29.73,WNW,283,5.0,5.0,6,0.00,,,0.00,Wunderground v.1.15,2013-05-01 23:53:00,
2013-05-01 17:58:00,82.0,8.3,29.73,WSW,255,5.0,5.0,6,0.00,,,0.00,Wunderground v.1.15,2013-05-01 23:58:00,
2013-05-01 18:08:00,82.0,8.3,29.74,South,171,5.0,5.0,6,0.00,,,0.00,Wunderground v.1.15,2013-05-02 00:08:00,
2013-05-01 18:18:00,81.6,8.1,29.74,SW,229,6.0,8.0,6,0.00,,,0.00,Wunderground v.1.15,2013-05-02 00:18:00,
2013-05-01 18:23:00,81.0,7.6,29.74,West,259,7.0,8.0,6,0.00,,,0.00,Wunderground v.1.15,2013-05-02 00:23:00,
2013-05-01 18:33:00,80.8,10.9,29.75,West,273,6.0,8.0,7,0.00,,,0.00,Wunderground v.1.15,2013-05-02 00:33:00,
2013-05-01 18:43:00,80.2,7.1,29.75,North,11,7.0,7.0,6,0.00,,,0.00,Wunderground v.1.15,2013-05-02 00:43:00,
2013-05-01 18:53:00,79.9,10.3,29.75,SW,217,7.0,7.0,7,0.00,,,0.00,Wunderground v.1.15,2013-05-02 00:53:00,
2013-05-01 18:58:00,79.5,10.0,29.75,West,281,7.0,9.0,7,0.00,,,0.00,Wunderground v.1.15,2013-05-02 00:58:00,
2013-05-01 19:08:00,78.4,9.2,29.75,WNW,291,4.0,6.0,7,0.00,,,0.00,Wunderground v.1.15,2013-05-02 01:08:00,
2013-05-01 19:18:00,77.3,20.7,29.76,NW,321,4.0,9.0,12,0.00,,,0.00,Wunderground v.1.15,2013-05-02 01:18:00,
2013-05-01 19:28:00,76.2,21.7,29.77,NNW,346,6.0,15.0,13,0.00,,,0.00,Wunderground v.1.15,2013-05-02 01:28:00,
2013-05-01 19:33:00,75.8,21.4,29.77,WNW,300,7.0,15.0,13,0.00,,,0.00,Wunderground v.1.15,2013-05-02 01:33:00,
2013-05-01 19:43:00,75.1,20.9,29.78,NW,315,6.0,11.0,13,0.00,,,0.00,Wunderground v.1.15,2013-05-02 01:43:00,
2013-05-01 19:48:00,74.8,22.4,29.78,NNW,330,7.0,7.0,14,0.00,,,0.00,Wunderground v.1.15,2013-05-02 01:48:00,
2013-05-01 19:58:00,73.9,16.0,29.80,NW,312,7.0,17.0,11,0.00,,,0.00,Wunderground v.1.15,2013-05-02 01:58:00,
2013-05-01 20:08:00,71.8,12.2,29.82,NNW,342,11.0,11.0,10,0.00,,,0.00,Wunderground v.1.15,2013-05-02 02:08:00,
2013-05-01 20:18:00,70.7,11.4,29.83,NNE,31,9.0,9.0,10,0.00,,,0.00,Wunderground v.1.15,2013-05-02 02:18:00,
2013-05-01 20:28:00,69.9,8.4,29.84,NW,318,7.0,7.0,9,0.00,,,0.00,Wunderground v.1.15,2013-05-02 02:28:00,
2013-05-01 20:38:00,68.8,5.0,29.86,NNE,23,9.0,9.0,8,0.00,,,0.00,Wunderground v.1.15,2013-05-02 02:38:00,
2013-05-01 20:48:00,68.2,4.5,29.89,NNE,15,6.0,6.0,8,0.00,,,0.00,Wunderground v.1.15,2013-05-02 02:48:00,
2013-05-01 20:53:00,67.7,-2.0,29.91,NE,44,7.0,7.0,6,0.00,,,0.00,Wunderground v.1.15,2013-05-02 02:53:00,
2013-05-01 20:58:00,67.2,0.9,29.92,NE,40,6.0,6.0,7,0.00,,,0.00,Wunderground v.1.15,2013-05-02 02:58:00,
2013-05-01 21:08:00,66.6,-2.8,29.93,North,3,4.0,5.0,6,0.00,,,0.00,Wunderground v.1.15,2013-05-02 03:08:00,
2013-05-01 21:13:00,66.4,-2.9,29.93,NNW,340,5.0,5.0,6,0.00,,,0.00,Wunderground v.1.15,2013-05-02 03:13:00,
2013-05-01 21:23:00,65.9,-3.3,29.94,WNW,287,4.0,5.0,6,0.00,,,0.00,Wunderground v.1.15,2013-05-02 03:23:00,
2013-05-01 21:33:00,65.0,-4.0,29.95,NNW,336,4.0,4.0,6,0.00,,,0.00,Wunderground v.1.15,2013-05-02 03:33:00,
2013-05-01 21:38:00,64.6,-4.3,29.95,NNW,330,5.0,6.0,6,0.00,,,0.00,Wunderground v.1.15,2013-05-02 03:38:00,
2013-05-01 21:48:00,64.1,-4.6,29.96,NW,309,6.0,6.0,6,0.00,,,0.00,Wunderground v.1.15,2013-05-02 03:48:00,
2013-05-01 21:53:00,63.8,-4.8,29.96,NNW,329,5.0,6.0,6,0.00,,,0.00,Wunderground v.1.15,2013-05-02 03:53:00,
2013-05-01 21:58:00,63.4,-5.1,29.96,NW,309,3.0,3.0,6,0.00,,,0.00,Wunderground v.1.15,2013-05-02 03:58:00,
2013-05-01 22:03:00,63.0,-5.4,29.97,WNW,297,2.0,3.0,6,0.00,,,0.00,Wunderground v.1.15,2013-05-02 04:03:00,
2013-05-01 22:08:00,62.6,-5.7,29.97,WNW,303,2.0,2.0,6,0.00,,,0.00,Wunderground v.1.15,2013-05-02 04:08:00,
2013-05-01 22:13:00,62.3,-5.9,29.97,SSW,206,2.0,2.0,6,0.00,,,0.00,Wunderground v.1.15,2013-05-02 04:13:00,
2013-05-01 22:18:00,62.0,-6.2,29.97,SW,232,1.0,2.0,6,0.00,,,0.00,Wunderground v.1.15,2013-05-02 04:18:00,
2013-05-01 22:23:00,61.7,-6.4,29.98,WSW,246,2.0,2.0,6,0.00,,,0.00,Wunderground v.1.15,2013-05-02 04:23:00,
2013-05-01 22:28:00,61.2,-0.7,29.98,South,191,2.0,3.0,8,0.00,,,0.00,Wunderground v.1.15,2013-05-02 04:28:00,
2013-05-01 22:33:00,60.0,24.0,29.99,SSW,195,2.0,4.0,25,0.00,,,0.00,Wunderground v.1.15,2013-05-02 04:33:00,
2013-05-01 22:43:00,57.9,25.0,29.99,South,171,5.0,6.0,28,0.00,,,0.00,Wunderground v.1.15,2013-05-02 04:43:00,
2013-05-01 22:48:00,57.1,25.9,30.00,SSW,192,7.0,7.0,30,0.00,,,0.00,Wunderground v.1.15,2013-05-02 04:48:00,
2013-05-01 22:58:00,56.3,22.7,30.01,SE,129,2.0,2.0,27,0.00,,,0.00,Wunderground v.1.15,2013-05-02 04:58:00,
2013-05-01 23:08:00,55.7,23.9,30.01,SSE,160,1.0,4.0,29,0.00,,,0.00,Wunderground v.1.15,2013-05-02 05:08:00,
2013-05-01 23:18:00,54.9,25.6,30.02,SSE,165,3.0,4.0,32,0.00,,,0.00,Wunderground v.1.15,2013-05-02 05:18:00,
2013-05-01 23:28:00,53.9,24.7,30.02,ESE,117,7.0,12.0,32,0.00,,,0.00,Wunderground v.1.15,2013-05-02 05:28:00,
2013-05-01 23:33:00,53.8,26.1,30.03,ESE,117,8.0,12.0,34,0.00,,,0.00,Wunderground v.1.15,2013-05-02 05:33:00,
2013-05-01 23:43:00,53.1,26.1,30.04,East,98,3.0,9.0,35,0.00,,,0.00,Wunderground v.1.15,2013-05-02 05:43:00,
2013-05-01 23:53:00,52.6,27.0,30.04,South,182,2.0,5.0,37,0.00,,,0.00,Wunderground v.1.15,2013-05-02 05:53:00,
2013-05-01 23:58:00,52.2,28.0,30.05,ESE,115,5.0,7.0,39,0.00,,,0.00,Wunderground v.1.15,2013-05-02 05:58:00,